Time,TemperatureF,DewpointF,PressureIn,WindDirection,WindDirectionDegrees,WindSpeedMPH,WindSpeedGustMPH,Humidity,HourlyPrecipIn,Conditions,Clouds,dailyrainin,SoftwareType,DateUTC
2013-03-20 00:00:00,23.7,22.5,29.74,SSW,202,0.0,0.0,95,0.00,,---,0.00,VWS V13.00,2013-03-20 04:00:00,
2013-03-20 00:05:00,23.5,22.3,29.74,SSW,202,0.0,0.0,95,0.00,,---,0.00,VWS V13.00,2013-03-20 04:05:00,
2013-03-20 00:10:00,23.3,22.1,29.74,SSW,202,0.0,0.0,95,0.00,,---,0.00,VWS V13.00,2013-03-20 04:10:00,
2013-03-20 00:15:00,23.2,22.0,29.74,SSW,202,0.0,0.0,95,0.00,,---,0.00,VWS V13.00,2013-03-20 04:15:00,
2013-03-20 00:20:00,23.1,21.9,29.74,SSW,202,0.0,0.0,95,0.00,,---,0.00,VWS V13.00,2013-03-20 04:20:00,
2013-03-20 00:25:00,23.1,21.9,29.74,SSW,201,0.0,0.0,95,0.00,,---,0.00,VWS V13.00,2013-03-20 04:25:00,
2013-03-20 00:30:00,23.0,21.8,29.73,SSW,201,0.0,0.0,95,0.00,,---,0.00,VWS V13.00,2013-03-20 04:30:00,
2013-03-20 00:35:00,23.0,21.8,29.74,SSW,201,0.0,0.0,95,0.00,,---,0.00,VWS V13.00,2013-03-20 04:35:00,
2013-03-20 00:40:00,23.0,21.8,29.74,SSW,201,0.0,0.0,95,0.00,,---,0.00,VWS V13.00,2013-03-20 04:40:00,
2013-03-20 00:45:00,23.0,21.8,29.74,SSW,200,0.0,0.0,95,0.00,,---,0.00,VWS V13.00,2013-03-20 04:45:00,
2013-03-20 00:50:00,23.0,21.8,29.74,SSW,201,0.0,0.0,95,0.00,,---,0.00,VWS V13.00,2013-03-20 04:50:00,
2013-03-20 00:55:00,23.1,21.9,29.74,SSW,201,0.0,0.0,95,0.00,,---,0.00,VWS V13.00,2013-03-20 04:55:00,
2013-03-20 01:00:00,23.2,22.0,29.74,SSW,200,0.0,0.0,95,0.00,,---,0.00,VWS V13.00,2013-03-20 05:00:00,
2013-03-20 01:05:00,23.2,22.0,29.74,SSW,201,0.0,0.0,95,0.00,,---,0.00,VWS V13.00,2013-03-20 05:05:00,
2013-03-20 01:10:00,23.3,22.1,29.73,SSW,201,0.0,0.0,95,0.00,,---,0.00,VWS V13.00,2013-03-20 05:10:00,
2013-03-20 01:15:00,23.3,22.1,29.73,SSW,200,0.0,0.0,95,0.00,,---,0.00,VWS V13.00,2013-03-20 05:15:00,
2013-03-20 01:20:00,23.3,22.1,29.73,SSW,201,0.0,0.0,95,0.00,,---,0.00,VWS V13.00,2013-03-20 05:20:00,
2013-03-20 01:25:00,23.3,22.1,29.73,SSW,201,0.0,0.0,95,0.00,,---,0.00,VWS V13.00,2013-03-20 05:25:00,
2013-03-20 01:30:00,23.3,22.1,29.73,SSW,201,0.0,0.0,95,0.00,,---,0.00,VWS V13.00,2013-03-20 05:30:00,
2013-03-20 01:35:00,23.3,22.1,29.73,SSW,200,0.0,0.0,95,0.00,,---,0.00,VWS V13.00,2013-03-20 05:35:00,
2013-03-20 01:40:00,23.3,22.1,29.73,SSW,200,0.0,0.0,95,0.00,,---,0.00,VWS V13.00,2013-03-20 05:40:00,
2013-03-20 01:45:00,23.3,22.1,29.73,SSW,200,0.0,0.0,95,0.00,,---,0.00,VWS V13.00,2013-03-20 05:45:00,
2013-03-20 01:50:00,23.3,22.1,29.74,SSW,201,0.0,0.0,95,0.00,,---,0.00,VWS V13.00,2013-03-20 05:50:00,
2013-03-20 01:55:00,23.3,22.1,29.73,SSW,200,0.0,0.0,95,0.00,,---,0.00,VWS V13.00,2013-03-20 05:55:00,
2013-03-20 02:00:00,23.3,22.1,29.74,SSW,201,0.0,0.0,95,0.00,,---,0.00,VWS V13.00,2013-03-20 06:00:00,
2013-03-20 02:05:00,23.3,22.1,29.73,SSW,201,0.0,0.0,95,0.00,,---,0.00,VWS V13.00,2013-03-20 06:05:00,
2013-03-20 02:10:00,23.2,22.0,29.73,SSW,200,0.0,0.0,95,0.00,,---,0.00,VWS V13.00,2013-03-20 06:10:00,
2013-03-20 02:15:00,23.2,22.0,29.72,SSW,200,0.0,0.0,95,0.00,,---,0.00,VWS V13.00,2013-03-20 06:15:00,
2013-03-20 02:20:00,23.3,22.1,29.72,SSW,200,0.0,0.0,95,0.00,,---,0.00,VWS V13.00,2013-03-20 06:20:00,
2013-03-20 02:25:00,23.3,22.1,29.72,SSW,201,0.0,0.0,95,0.00,,---,0.00,VWS V13.00,2013-03-20 06:25:00,
2013-03-20 02:30:00,23.2,22.0,29.72,SSW,201,0.0,0.0,95,0.00,,---,0.00,VWS V13.00,2013-03-20 06:30:00,
2013-03-20 02:35:00,23.2,22.0,29.72,SSW,200,0.0,0.0,95,0.00,,---,0.00,VWS V13.00,2013-03-20 06:35:00,
2013-03-20 02:40:00,23.2,22.0,29.72,SSW,200,0.0,0.0,95,0.00,,---,0.00,VWS V13.00,2013-03-20 06:40:00,
2013-03-20 02:45:00,23.2,22.0,29.72,SSW,200,0.0,0.0,95,0.00,,---,0.00,VWS V13.00,2013-03-20 06:45:00,
2013-03-20 02:50:00,23.2,22.0,29.72,SSW,201,0.0,0.0,95,0.00,,---,0.00,VWS V13.00,2013-03-20 06:50:00,
2013-03-20 02:55:00,23.2,22.0,29.72,SSW,201,0.0,0.0,95,0.00,,---,0.00,VWS V13.00,2013-03-20 06:55:00,
2013-03-20 03:00:00,23.2,22.0,29.72,SSW,200,0.0,0.0,95,0.00,,---,0.00,VWS V13.00,2013-03-20 07:00:00,
2013-03-20 03:05:00,23.2,22.0,29.72,SSW,201,0.0,0.0,95,0.00,,---,0.00,VWS V13.00,2013-03-20 07:05:00,
2013-03-20 03:10:00,23.2,22.0,29.72,SSW,201,0.0,0.0,95,0.00,,---,0.00,VWS V13.00,2013-03-20 07:10:00,
2013-03-20 03:15:00,23.2,22.0,29.72,SSW,202,0.0,0.0,95,0.00,,---,0.00,VWS V13.00,2013-03-20 07:15:00,
2013-03-20 03:20:00,23.3,22.1,29.72,SSW,200,0.0,0.0,95,0.00,,---,0.00,VWS V13.00,2013-03-20 07:20:00,
2013-03-20 03:25:00,23.4,22.2,29.71,SSW,200,0.0,0.0,95,0.00,,---,0.00,VWS V13.00,2013-03-20 07:25:00,
2013-03-20 03:30:00,23.4,22.2,29.71,SSW,201,0.0,0.0,95,0.00,,---,0.00,VWS V13.00,2013-03-20 07:30:00,
2013-03-20 03:35:00,23.5,22.3,29.72,SSW,202,0.0,0.0,95,0.00,,---,0.00,VWS V13.00,2013-03-20 07:35:00,
2013-03-20 03:40:00,23.5,22.3,29.71,SSW,201,0.0,0.0,95,0.00,,---,0.00,VWS V13.00,2013-03-20 07:40:00,
2013-03-20 03:45:00,23.5,22.3,29.71,SSW,200,0.0,0.0,95,0.00,,---,0.00,VWS V13.00,2013-03-20 07:45:00,
2013-03-20 03:50:00,23.5,22.3,29.71,SSW,201,0.0,0.0,95,0.00,,---,0.00,VWS V13.00,2013-03-20 07:50:00,
2013-03-20 03:55:00,23.5,22.3,29.71,SSW,201,0.0,0.0,95,0.00,,---,0.00,VWS V13.00,2013-03-20 07:55:00,
2013-03-20 04:00:00,23.5,22.3,29.71,SSW,201,0.0,0.0,95,0.00,,---,0.00,VWS V13.00,2013-03-20 08:00:00,
2013-03-20 04:05:00,23.6,22.4,29.71,SSW,201,0.0,0.0,95,0.00,,---,0.00,VWS V13.00,2013-03-20 08:05:00,
2013-03-20 04:10:00,23.6,22.4,29.71,SSW,201,0.0,0.0,95,0.00,,---,0.00,VWS V13.00,2013-03-20 08:10:00,
2013-03-20 04:15:00,23.6,22.4,29.71,SSW,201,0.0,0.0,95,0.00,,---,0.00,VWS V13.00,2013-03-20 08:15:00,
2013-03-20 04:20:00,23.6,22.4,29.71,SSW,202,0.0,0.0,95,0.00,,---,0.00,VWS V13.00,2013-03-20 08:20:00,
2013-03-20 04:25:00,23.6,22.4,29.71,SSW,200,0.0,0.0,95,0.00,,---,0.00,VWS V13.00,2013-03-20 08:25:00,
2013-03-20 04:30:00,23.7,22.5,29.71,SSW,201,0.0,0.0,95,0.00,,---,0.00,VWS V13.00,2013-03-20 08:30:00,
2013-03-20 04:35:00,23.8,22.6,29.71,SSW,201,0.0,0.0,95,0.00,,---,0.00,VWS V13.00,2013-03-20 08:35:00,
2013-03-20 04:40:00,23.9,22.7,29.71,SSW,201,0.0,0.0,95,0.00,,---,0.00,VWS V13.00,2013-03-20 08:40:00,
2013-03-20 04:45:00,24.0,22.8,29.71,SSW,202,0.0,0.0,95,0.00,,---,0.00,VWS V13.00,2013-03-20 08:45:00,
2013-03-20 04:50:00,24.0,22.8,29.71,SSW,200,0.0,0.0,95,0.00,,---,0.00,VWS V13.00,2013-03-20 08:50:00,
2013-03-20 04:55:00,24.0,22.8,29.71,SSW,201,0.0,0.0,95,0.00,,---,0.00,VWS V13.00,2013-03-20 08:55:00,
2013-03-20 05:00:00,24.1,22.9,29.71,SSW,202,0.0,0.0,95,0.00,,---,0.00,VWS V13.00,2013-03-20 09:00:00,
2013-03-20 05:05:00,24.2,23.0,29.71,SSW,201,0.0,0.0,95,0.00,,---,0.00,VWS V13.00,2013-03-20 09:05:00,
2013-03-20 05:10:00,24.2,23.0,29.71,SSW,202,0.0,0.0,95,0.00,,---,0.00,VWS V13.00,2013-03-20 09:10:00,
2013-03-20 05:15:00,24.4,23.2,29.71,SSW,201,0.0,0.0,95,0.00,,---,0.00,VWS V13.00,2013-03-20 09:15:00,
2013-03-20 05:20:00,24.4,23.2,29.71,SSW,201,0.0,0.0,95,0.00,,---,0.00,VWS V13.00,2013-03-20 09:20:00,
2013-03-20 05:25:00,24.5,23.3,29.71,SSW,201,0.0,0.0,95,0.00,,---,0.00,VWS V13.00,2013-03-20 09:25:00,
2013-03-20 05:30:00,24.6,23.4,29.71,SSW,200,0.0,0.0,95,0.00,,---,0.00,VWS V13.00,2013-03-20 09:30:00,
2013-03-20 05:35:00,24.7,23.5,29.71,SSW,200,0.0,0.0,95,0.00,,---,0.00,VWS V13.00,2013-03-20 09:35:00,
2013-03-20 05:40:00,24.8,23.6,29.71,SSW,202,0.0,0.0,95,0.00,,---,0.00,VWS V13.00,2013-03-20 09:40:00,
2013-03-20 05:45:00,24.9,23.4,29.71,SSW,201,0.0,0.0,94,0.00,,---,0.00,VWS V13.00,2013-03-20 09:45:00,
2013-03-20 05:50:00,24.9,23.4,29.72,SSW,202,0.0,0.0,94,0.00,,---,0.00,VWS V13.00,2013-03-20 09:50:00,
2013-03-20 05:55:00,24.9,23.4,29.72,SSW,202,0.0,0.0,94,0.00,,---,0.00,VWS V13.00,2013-03-20 09:55:00,
2013-03-20 06:00:00,24.9,23.4,29.72,SSW,202,0.0,0.0,94,0.00,,---,0.00,VWS V13.00,2013-03-20 10:00:00,
2013-03-20 06:05:00,24.9,23.2,29.72,SSW,202,0.0,0.0,93,0.00,,---,0.00,VWS V13.00,2013-03-20 10:05:00,
2013-03-20 06:10:00,24.9,23.2,29.72,SSW,202,0.0,0.0,93,0.00,,---,0.00,VWS V13.00,2013-03-20 10:10:00,
2013-03-20 06:15:00,24.9,23.2,29.72,SSW,202,0.0,0.0,93,0.00,,---,0.00,VWS V13.00,2013-03-20 10:15:00,
2013-03-20 06:20:00,24.9,23.2,29.72,SSW,201,0.0,0.0,93,0.00,,---,0.00,VWS V13.00,2013-03-20 10:20:00,
2013-03-20 06:25:00,24.9,23.2,29.72,SSW,202,0.0,0.0,93,0.00,,---,0.00,VWS V13.00,2013-03-20 10:25:00,
2013-03-20 06:30:00,24.9,22.9,29.72,SSW,202,0.0,0.0,92,0.00,,---,0.00,VWS V13.00,2013-03-20 10:30:00,
2013-03-20 06:35:00,24.9,22.9,29.72,SSW,202,0.0,0.0,92,0.00,,---,0.00,VWS V13.00,2013-03-20 10:35:00,
2013-03-20 06:40:00,24.9,22.9,29.72,SSW,202,0.0,0.0,92,0.00,,---,0.00,VWS V13.00,2013-03-20 10:40:00,
2013-03-20 06:45:00,24.9,22.9,29.72,SSW,202,0.0,0.0,92,0.00,,---,0.00,VWS V13.00,2013-03-20 10:45:00,
2013-03-20 06:50:00,24.9,22.6,29.73,SSW,202,0.0,0.0,91,0.00,,---,0.00,VWS V13.00,2013-03-20 10:50:00,
2013-03-20 06:55:00,24.9,22.6,29.73,SSW,202,0.0,0.0,91,0.00,,---,0.00,VWS V13.00,2013-03-20 10:55:00,
2013-03-20 07:00:00,24.8,22.5,29.73,SSW,202,0.0,0.0,91,0.00,,---,0.00,VWS V13.00,2013-03-20 11:00:00,
2013-03-20 07:05:00,24.9,22.6,29.73,SSW,202,0.0,0.0,91,0.00,,---,0.00,VWS V13.00,2013-03-20 11:05:00,
2013-03-20 07:10:00,24.8,22.5,29.73,SSW,202,0.0,0.0,91,0.00,,---,0.00,VWS V13.00,2013-03-20 11:10:00,
2013-03-20 07:15:00,24.8,22.5,29.73,SSW,202,0.0,0.0,91,0.00,,---,0.00,VWS V13.00,2013-03-20 11:15:00,
2013-03-20 07:20:00,24.8,22.5,29.73,SSW,202,0.0,0.0,91,0.00,,---,0.00,VWS V13.00,2013-03-20 11:20:00,
2013-03-20 07:25:00,24.7,22.5,29.73,SSW,202,0.0,0.0,91,0.00,,---,0.00,VWS V13.00,2013-03-20 11:25:00,
2013-03-20 07:30:00,24.7,22.5,29.73,SSW,200,0.0,0.0,91,0.00,,---,0.00,VWS V13.00,2013-03-20 11:30:00,
2013-03-20 07:35:00,24.7,22.5,29.73,SSW,200,0.0,0.0,91,0.00,,---,0.00,VWS V13.00,2013-03-20 11:35:00,
2013-03-20 07:40:00,24.7,22.2,29.74,SSW,202,0.0,0.0,90,0.00,,---,0.00,VWS V13.00,2013-03-20 11:40:00,
2013-03-20 07:45:00,24.7,22.2,29.74,SSW,202,0.0,0.0,90,0.00,,---,0.00,VWS V13.00,2013-03-20 11:45:00,
2013-03-20 07:50:00,24.8,22.3,29.74,SSW,202,0.0,0.0,90,0.00,,---,0.00,VWS V13.00,2013-03-20 11:50:00,
2013-03-20 07:55:00,24.8,22.3,29.74,SSW,202,0.0,0.0,90,0.00,,---,0.00,VWS V13.00,2013-03-20 11:55:00,
2013-03-20 08:00:00,24.9,22.4,29.74,SSW,202,0.0,0.0,90,0.00,,---,0.00,VWS V13.00,2013-03-20 12:00:00,
2013-03-20 08:05:00,25.0,22.5,29.74,SSW,202,0.0,0.0,90,0.00,,---,0.00,VWS V13.00,2013-03-20 12:05:00,
2013-03-20 08:10:00,25.1,22.6,29.74,SSW,202,0.0,0.0,90,0.00,,---,0.00,VWS V13.00,2013-03-20 12:10:00,
2013-03-20 08:15:00,25.2,22.7,29.74,SSW,202,0.0,0.0,90,0.00,,---,0.00,VWS V13.00,2013-03-20 12:15:00,
2013-03-20 08:20:00,25.2,22.4,29.74,SSW,202,0.0,0.0,89,0.00,,---,0.00,VWS V13.00,2013-03-20 12:20:00,
2013-03-20 08:25:00,25.1,22.3,29.75,SSW,202,0.0,0.0,89,0.00,,---,0.00,VWS V13.00,2013-03-20 12:25:00,
2013-03-20 08:30:00,25.2,22.4,29.74,SSW,202,0.0,0.0,89,0.00,,---,0.00,VWS V13.00,2013-03-20 12:30:00,
2013-03-20 08:35:00,25.3,22.5,29.74,SSW,202,0.0,0.0,89,0.00,,---,0.00,VWS V13.00,2013-03-20 12:35:00,
2013-03-20 08:40:00,25.4,22.4,29.74,SSW,202,0.0,0.0,88,0.00,,---,0.00,VWS V13.00,2013-03-20 12:40:00,
2013-03-20 08:45:00,25.5,22.5,29.74,SSW,202,0.0,0.0,88,0.00,,---,0.00,VWS V13.00,2013-03-20 12:45:00,
2013-03-20 08:50:00,25.8,22.7,29.74,SSW,202,0.0,0.0,88,0.00,,---,0.00,VWS V13.00,2013-03-20 12:50:00,
2013-03-20 08:55:00,25.9,22.8,29.74,SSW,202,0.0,0.0,88,0.00,,---,0.00,VWS V13.00,2013-03-20 12:55:00,
2013-03-20 09:00:00,26.0,22.7,29.74,SSW,202,0.0,0.0,87,0.00,,---,0.00,VWS V13.00,2013-03-20 13:00:00,
2013-03-20 09:05:00,26.2,22.9,29.73,SSW,202,0.0,0.0,87,0.00,,---,0.00,VWS V13.00,2013-03-20 13:05:00,
2013-03-20 09:10:00,26.4,22.8,29.74,SSW,202,0.0,0.0,86,0.00,,---,0.00,VWS V13.00,2013-03-20 13:10:00,
2013-03-20 09:15:00,26.7,23.4,29.73,SSW,202,0.0,0.0,87,0.00,,---,0.00,VWS V13.00,2013-03-20 13:15:00,
2013-03-20 09:20:00,26.9,23.0,29.73,SSW,202,0.0,0.0,85,0.00,,---,0.00,VWS V13.00,2013-03-20 13:20:00,
2013-03-20 09:25:00,27.2,23.3,29.74,SSW,202,0.0,0.0,85,0.00,,---,0.00,VWS V13.00,2013-03-20 13:25:00,
2013-03-20 09:30:00,27.5,23.6,29.73,SSW,202,0.0,0.0,85,0.00,,---,0.00,VWS V13.00,2013-03-20 13:30:00,
2013-03-20 09:35:00,28.0,24.1,29.74,SSW,202,0.0,0.0,85,0.00,,---,0.00,VWS V13.00,2013-03-20 13:35:00,
2013-03-20 09:40:00,28.2,24.0,29.74,SSW,202,0.0,0.0,84,0.00,,---,0.00,VWS V13.00,2013-03-20 13:40:00,
2013-03-20 09:45:00,28.6,24.1,29.73,SSW,202,0.0,0.0,83,0.00,,---,0.00,VWS V13.00,2013-03-20 13:45:00,
2013-03-20 09:50:00,28.9,24.1,29.74,SSW,202,0.0,0.0,82,0.00,,---,0.00,VWS V13.00,2013-03-20 13:50:00,
2013-03-20 09:55:00,29.2,24.4,29.73,SSW,202,0.0,0.0,82,0.00,,---,0.00,VWS V13.00,2013-03-20 13:55:00,
2013-03-20 10:00:00,29.6,24.8,29.73,SSW,202,0.0,0.0,82,0.00,,---,0.00,VWS V13.00,2013-03-20 14:00:00,
2013-03-20 10:05:00,29.8,24.1,29.73,SSW,202,0.0,0.0,79,0.00,,---,0.00,VWS V13.00,2013-03-20 14:05:00,
2013-03-20 10:10:00,29.8,23.5,29.73,SSW,202,0.0,0.0,77,0.00,,---,0.00,VWS V13.00,2013-03-20 14:10:00,
2013-03-20 10:15:00,29.8,23.5,29.73,SSW,202,0.0,0.0,77,0.00,,---,0.00,VWS V13.00,2013-03-20 14:15:00,
2013-03-20 10:20:00,30.2,23.9,29.74,SSW,202,0.0,0.0,77,0.00,,---,0.00,VWS V13.00,2013-03-20 14:20:00,
2013-03-20 10:25:00,30.6,24.0,29.73,SSW,202,0.0,0.0,76,0.00,,---,0.00,VWS V13.00,2013-03-20 14:25:00,
2013-03-20 10:30:00,30.4,23.1,29.74,SSW,202,0.0,0.0,74,0.00,,---,0.00,VWS V13.00,2013-03-20 14:30:00,
2013-03-20 10:35:00,30.2,23.2,29.73,SSW,202,0.0,0.0,75,0.00,,---,0.00,VWS V13.00,2013-03-20 14:35:00,
2013-03-20 10:40:00,30.1,22.8,29.74,SSW,202,0.0,0.0,74,0.00,,---,0.00,VWS V13.00,2013-03-20 14:40:00,
2013-03-20 10:45:00,29.4,22.5,29.73,SSW,202,0.0,0.0,75,0.00,,---,0.00,VWS V13.00,2013-03-20 14:45:00,
2013-03-20 10:50:00,29.6,23.0,29.73,SSW,202,0.0,0.0,76,0.00,,---,0.00,VWS V13.00,2013-03-20 14:50:00,
2013-03-20 10:55:00,30.0,23.4,29.74,SSW,202,0.0,0.0,76,0.00,,---,0.00,VWS V13.00,2013-03-20 14:55:00,
2013-03-20 11:00:00,30.0,23.0,29.73,SSW,202,0.0,0.0,75,0.00,,---,0.00,VWS V13.00,2013-03-20 15:00:00,
2013-03-20 11:05:00,29.8,22.2,29.74,SSW,202,0.0,0.0,73,0.00,,---,0.00,VWS V13.00,2013-03-20 15:05:00,
2013-03-20 11:10:00,29.5,21.9,29.74,SSW,202,0.0,0.0,73,0.00,,---,0.00,VWS V13.00,2013-03-20 15:10:00,
2013-03-20 11:15:00,29.5,22.2,29.74,SSW,202,0.0,0.0,74,0.00,,---,0.00,VWS V13.00,2013-03-20 15:15:00,
2013-03-20 11:20:00,29.6,22.4,29.74,SSW,202,0.0,0.0,74,0.00,,---,0.00,VWS V13.00,2013-03-20 15:20:00,
2013-03-20 11:25:00,29.8,22.5,29.74,SSW,202,0.0,0.0,74,0.00,,---,0.00,VWS V13.00,2013-03-20 15:25:00,
2013-03-20 11:30:00,29.7,22.4,29.74,SSW,202,0.0,0.0,74,0.01,,---,0.01,VWS V13.00,2013-03-20 15:30:00,
2013-03-20 11:35:00,30.2,22.6,29.74,SSW,202,0.0,0.0,73,0.01,,---,0.01,VWS V13.00,2013-03-20 15:35:00,
2013-03-20 11:40:00,30.6,22.7,29.74,SSW,202,0.0,0.0,72,0.01,,---,0.01,VWS V13.00,2013-03-20 15:40:00,
2013-03-20 11:45:00,30.7,22.8,29.74,SSW,202,0.0,0.0,72,0.01,,---,0.01,VWS V13.00,2013-03-20 15:45:00,
2013-03-20 11:50:00,30.9,23.0,29.74,SSW,200,0.0,0.0,72,0.01,,---,0.01,VWS V13.00,2013-03-20 15:50:00,
2013-03-20 11:55:00,30.8,22.5,29.74,SSW,201,0.0,0.0,71,0.01,,---,0.01,VWS V13.00,2013-03-20 15:55:00,
2013-03-20 12:00:00,30.9,22.6,29.74,SSW,201,0.0,0.0,71,0.01,,---,0.01,VWS V13.00,2013-03-20 16:00:00,
2013-03-20 12:05:00,30.6,22.7,29.74,SSW,200,0.0,0.0,72,0.01,,---,0.01,VWS V13.00,2013-03-20 16:05:00,
2013-03-20 12:10:00,30.8,22.9,29.74,SSW,200,0.0,0.0,72,0.02,,---,0.02,VWS V13.00,2013-03-20 16:10:00,
2013-03-20 12:15:00,30.8,22.2,29.74,SSW,201,0.0,0.0,70,0.02,,---,0.02,VWS V13.00,2013-03-20 16:15:00,
2013-03-20 12:20:00,30.9,22.6,29.74,SSW,201,0.0,0.0,71,0.02,,---,0.02,VWS V13.00,2013-03-20 16:20:00,
2013-03-20 12:25:00,30.9,22.6,29.74,SSW,201,0.0,0.0,71,0.02,,---,0.02,VWS V13.00,2013-03-20 16:25:00,
2013-03-20 12:30:00,30.6,22.3,29.74,SSW,200,0.0,0.0,71,0.02,,---,0.02,VWS V13.00,2013-03-20 16:30:00,
2013-03-20 12:35:00,30.7,22.8,29.73,SSW,200,0.0,0.0,72,0.02,,---,0.02,VWS V13.00,2013-03-20 16:35:00,
2013-03-20 12:40:00,30.9,22.6,29.74,SSW,201,0.0,0.0,71,0.01,,---,0.02,VWS V13.00,2013-03-20 16:40:00,
2013-03-20 12:45:00,31.1,22.5,29.74,SSW,201,0.0,0.0,70,0.01,,---,0.02,VWS V13.00,2013-03-20 16:45:00,
2013-03-20 12:50:00,31.5,22.9,29.74,SSW,200,0.0,0.0,70,0.01,,---,0.02,VWS V13.00,2013-03-20 16:50:00,
2013-03-20 12:55:00,31.5,22.2,29.74,SSW,200,0.0,0.0,68,0.01,,---,0.02,VWS V13.00,2013-03-20 16:55:00,
2013-03-20 13:00:00,32.2,22.8,29.74,WNW,291,3.0,12.0,68,0.01,,---,0.02,VWS V13.00,2013-03-20 17:00:00,
2013-03-20 13:05:00,33.2,22.7,29.73,WNW,292,4.0,13.0,65,0.01,,---,0.02,VWS V13.00,2013-03-20 17:05:00,
2013-03-20 13:10:00,32.7,23.0,29.74,WNW,293,6.0,15.0,67,0.01,,---,0.02,VWS V13.00,2013-03-20 17:10:00,
2013-03-20 13:15:00,32.9,22.8,29.74,West,268,8.0,15.0,66,0.01,,---,0.02,VWS V13.00,2013-03-20 17:15:00,
2013-03-20 13:20:00,33.3,22.8,29.74,West,259,9.0,15.0,65,0.01,,---,0.02,VWS V13.00,2013-03-20 17:20:00,
2013-03-20 13:25:00,33.4,22.9,29.74,SW,229,6.0,16.0,65,0.01,,---,0.02,VWS V13.00,2013-03-20 17:25:00,
2013-03-20 13:30:00,33.7,22.5,29.74,West,274,12.0,18.0,63,0.02,,---,0.03,VWS V13.00,2013-03-20 17:30:00,
2013-03-20 13:35:00,33.5,21.5,29.74,WNW,298,6.0,19.0,61,0.02,,---,0.03,VWS V13.00,2013-03-20 17:35:00,
2013-03-20 13:40:00,33.6,21.2,29.74,WNW,286,4.0,11.0,60,0.01,,---,0.03,VWS V13.00,2013-03-20 17:40:00,
2013-03-20 13:45:00,33.5,21.9,29.74,WSW,252,6.0,14.0,62,0.01,,---,0.03,VWS V13.00,2013-03-20 17:45:00,
2013-03-20 13:50:00,33.6,22.0,29.74,West,273,7.0,18.0,62,0.01,,---,0.03,VWS V13.00,2013-03-20 17:50:00,
2013-03-20 13:55:00,34.1,21.3,29.73,West,280,6.0,18.0,59,0.01,,---,0.03,VWS V13.00,2013-03-20 17:55:00,
2013-03-20 14:00:00,33.5,20.3,29.74,WSW,250,10.0,19.0,58,0.02,,---,0.04,VWS V13.00,2013-03-20 18:00:00,
2013-03-20 14:05:00,33.9,22.3,29.73,WNW,284,10.0,19.0,62,0.02,,---,0.04,VWS V13.00,2013-03-20 18:05:00,
2013-03-20 14:10:00,34.8,22.0,29.73,SW,232,4.0,13.0,59,0.02,,---,0.04,VWS V13.00,2013-03-20 18:10:00,
2013-03-20 14:15:00,34.8,22.0,29.73,WNW,294,4.0,17.0,59,0.02,,---,0.04,VWS V13.00,2013-03-20 18:15:00,
2013-03-20 14:20:00,35.2,22.7,29.72,WSW,250,7.0,17.0,60,0.02,,---,0.04,VWS V13.00,2013-03-20 18:20:00,
2013-03-20 14:25:00,35.4,22.9,29.72,WNW,295,5.0,17.0,60,0.02,,---,0.04,VWS V13.00,2013-03-20 18:25:00,
2013-03-20 14:30:00,35.6,23.1,29.72,SW,236,10.0,17.0,60,0.02,,---,0.04,VWS V13.00,2013-03-20 18:30:00,
2013-03-20 14:35:00,34.6,21.8,29.73,SW,232,7.0,20.0,59,0.02,,---,0.04,VWS V13.00,2013-03-20 18:35:00,
2013-03-20 14:40:00,34.4,22.7,29.73,WNW,294,7.0,14.0,62,0.01,,---,0.04,VWS V13.00,2013-03-20 18:40:00,
2013-03-20 14:45:00,35.1,22.6,29.72,West,269,5.0,16.0,60,0.01,,---,0.04,VWS V13.00,2013-03-20 18:45:00,
2013-03-20 14:50:00,35.2,22.7,29.72,WSW,241,3.0,16.0,60,0.01,,---,0.04,VWS V13.00,2013-03-20 18:50:00,
2013-03-20 14:55:00,34.9,22.8,29.72,WNW,301,8.0,16.0,61,0.01,,---,0.04,VWS V13.00,2013-03-20 18:55:00,
2013-03-20 15:00:00,34.4,22.4,29.73,WNW,288,8.0,17.0,61,0.01,,---,0.04,VWS V13.00,2013-03-20 19:00:00,
2013-03-20 15:05:00,34.3,23.0,29.73,SW,217,8.0,17.0,63,0.01,,---,0.04,VWS V13.00,2013-03-20 19:05:00,
2013-03-20 15:10:00,34.4,22.0,29.73,WSW,246,5.0,14.0,60,0.00,,---,0.04,VWS V13.00,2013-03-20 19:10:00,
2013-03-20 15:15:00,34.8,23.1,29.73,West,271,9.0,17.0,62,0.00,,---,0.04,VWS V13.00,2013-03-20 19:15:00,
2013-03-20 15:20:00,34.4,22.4,29.73,WNW,286,11.0,20.0,61,0.01,,---,0.05,VWS V13.00,2013-03-20 19:20:00,
2013-03-20 15:25:00,34.2,23.3,29.72,NNW,336,3.0,20.0,64,0.01,,---,0.05,VWS V13.00,2013-03-20 19:25:00,
2013-03-20 15:30:00,34.4,23.1,29.73,WSW,253,6.0,20.0,63,0.01,,---,0.05,VWS V13.00,2013-03-20 19:30:00,
2013-03-20 15:35:00,34.4,22.4,29.73,WSW,238,6.0,20.0,61,0.02,,---,0.06,VWS V13.00,2013-03-20 19:35:00,
2013-03-20 15:40:00,34.4,22.7,29.72,West,259,8.0,12.0,62,0.02,,---,0.06,VWS V13.00,2013-03-20 19:40:00,
2013-03-20 15:45:00,34.3,22.3,29.73,West,281,5.0,13.0,61,0.02,,---,0.06,VWS V13.00,2013-03-20 19:45:00,
2013-03-20 15:50:00,34.4,22.7,29.73,WSW,248,4.0,17.0,62,0.02,,---,0.06,VWS V13.00,2013-03-20 19:50:00,
2013-03-20 15:55:00,34.5,23.2,29.73,WSW,249,6.0,17.0,63,0.02,,---,0.06,VWS V13.00,2013-03-20 19:55:00,
2013-03-20 16:00:00,35.3,23.6,29.72,SW,229,4.0,17.0,62,0.02,,---,0.06,VWS V13.00,2013-03-20 20:00:00,
2013-03-20 16:05:00,35.2,23.1,29.73,SW,227,2.0,17.0,61,0.02,,---,0.06,VWS V13.00,2013-03-20 20:05:00,
2013-03-20 16:10:00,35.2,23.1,29.72,WSW,254,6.0,12.0,61,0.02,,---,0.06,VWS V13.00,2013-03-20 20:10:00,
2013-03-20 16:15:00,35.2,23.1,29.73,SW,229,7.0,12.0,61,0.03,,---,0.07,VWS V13.00,2013-03-20 20:15:00,
2013-03-20 16:20:00,35.1,22.6,29.73,WNW,284,2.0,16.0,60,0.03,,---,0.07,VWS V13.00,2013-03-20 20:20:00,
2013-03-20 16:25:00,35.3,23.2,29.73,WSW,257,6.0,16.0,61,0.03,,---,0.07,VWS V13.00,2013-03-20 20:25:00,
2013-03-20 16:30:00,35.2,23.1,29.72,SW,230,6.0,16.0,61,0.03,,---,0.07,VWS V13.00,2013-03-20 20:30:00,
2013-03-20 16:35:00,35.0,22.1,29.73,WNW,288,10.0,17.0,59,0.03,,---,0.07,VWS V13.00,2013-03-20 20:35:00,
2013-03-20 16:40:00,35.0,22.5,29.73,WSW,241,3.0,17.0,60,0.02,,---,0.08,VWS V13.00,2013-03-20 20:40:00,
2013-03-20 16:45:00,35.3,23.2,29.73,WNW,291,5.0,21.0,61,0.02,,---,0.08,VWS V13.00,2013-03-20 20:45:00,
2013-03-20 16:50:00,35.3,22.4,29.73,West,275,8.0,21.0,59,0.02,,---,0.08,VWS V13.00,2013-03-20 20:50:00,
2013-03-20 16:55:00,35.0,22.9,29.73,WSW,237,7.0,21.0,61,0.02,,---,0.08,VWS V13.00,2013-03-20 20:55:00,
2013-03-20 17:00:00,34.4,22.4,29.73,SSW,209,7.0,21.0,61,0.02,,---,0.08,VWS V13.00,2013-03-20 21:00:00,
2013-03-20 17:05:00,34.4,22.4,29.73,WSW,244,5.0,21.0,61,0.02,,---,0.08,VWS V13.00,2013-03-20 21:05:00,
2013-03-20 17:10:00,34.4,22.0,29.73,WNW,298,13.0,13.0,60,0.02,,---,0.08,VWS V13.00,2013-03-20 21:10:00,
2013-03-20 17:15:00,34.0,22.4,29.73,WSW,237,9.0,14.0,62,0.02,,---,0.08,VWS V13.00,2013-03-20 21:15:00,
2013-03-20 17:20:00,33.8,22.5,29.73,West,273,9.0,14.0,63,0.02,,---,0.08,VWS V13.00,2013-03-20 21:20:00,
2013-03-20 17:25:00,33.9,22.6,29.73,West,260,4.0,14.0,63,0.02,,---,0.08,VWS V13.00,2013-03-20 21:25:00,
2013-03-20 17:30:00,34.0,22.4,29.73,WSW,237,7.0,14.0,62,0.02,,---,0.08,VWS V13.00,2013-03-20 21:30:00,
2013-03-20 17:35:00,34.2,22.5,29.74,WNW,290,7.0,15.0,62,0.02,,---,0.08,VWS V13.00,2013-03-20 21:35:00,
2013-03-20 17:40:00,34.1,21.7,29.74,WSW,257,10.0,14.0,60,0.00,,---,0.08,VWS V13.00,2013-03-20 21:40:00,
2013-03-20 17:45:00,34.2,21.8,29.74,NW,304,11.0,16.0,60,0.00,,---,0.08,VWS V13.00,2013-03-20 21:45:00,
2013-03-20 17:50:00,34.1,22.1,29.74,WSW,248,6.0,16.0,61,0.00,,---,0.08,VWS V13.00,2013-03-20 21:50:00,
2013-03-20 17:55:00,33.8,22.9,29.74,WSW,245,2.0,16.0,64,0.00,,---,0.08,VWS V13.00,2013-03-20 21:55:00,
2013-03-20 18:00:00,33.5,22.3,29.74,WSW,257,4.0,16.0,63,0.00,,---,0.08,VWS V13.00,2013-03-20 22:00:00,
2013-03-20 18:05:00,33.3,21.7,29.75,WSW,242,12.0,16.0,62,0.00,,---,0.08,VWS V13.00,2013-03-20 22:05:00,
2013-03-20 18:10:00,33.3,22.1,29.75,SW,230,9.0,13.0,63,0.00,,---,0.08,VWS V13.00,2013-03-20 22:10:00,
2013-03-20 18:15:00,33.2,22.7,29.75,WSW,244,6.0,13.0,65,0.00,,---,0.08,VWS V13.00,2013-03-20 22:15:00,
2013-03-20 18:20:00,33.1,21.9,29.75,West,270,4.0,13.0,63,0.00,,---,0.08,VWS V13.00,2013-03-20 22:20:00,
2013-03-20 18:25:00,33.1,22.3,29.75,WSW,242,5.0,13.0,64,0.00,,---,0.08,VWS V13.00,2013-03-20 22:25:00,
2013-03-20 18:30:00,32.9,21.7,29.76,WSW,257,4.0,18.0,63,0.00,,---,0.08,VWS V13.00,2013-03-20 22:30:00,
2013-03-20 18:35:00,32.6,21.4,29.76,WSW,243,9.0,18.0,63,0.00,,---,0.08,VWS V13.00,2013-03-20 22:35:00,
2013-03-20 18:40:00,32.6,21.4,29.76,SW,227,7.0,15.0,63,0.00,,---,0.08,VWS V13.00,2013-03-20 22:40:00,
2013-03-20 18:45:00,32.5,21.7,29.76,WSW,241,9.0,15.0,64,0.00,,---,0.08,VWS V13.00,2013-03-20 22:45:00,
2013-03-20 18:50:00,32.3,21.1,29.76,West,263,3.0,15.0,63,0.00,,---,0.08,VWS V13.00,2013-03-20 22:50:00,
2013-03-20 18:55:00,32.1,22.0,29.77,West,273,7.0,15.0,66,0.00,,---,0.08,VWS V13.00,2013-03-20 22:55:00,
2013-03-20 19:00:00,31.8,21.0,29.77,WSW,237,3.0,15.0,64,0.00,,---,0.08,VWS V13.00,2013-03-20 23:00:00,
2013-03-20 19:05:00,31.7,21.7,29.77,WSW,237,4.0,15.0,66,0.00,,---,0.08,VWS V13.00,2013-03-20 23:05:00,
2013-03-20 19:10:00,31.2,21.9,29.78,West,273,4.0,6.0,68,0.00,,---,0.08,VWS V13.00,2013-03-20 23:10:00,
2013-03-20 19:15:00,31.0,21.3,29.78,West,261,6.0,14.0,67,0.00,,---,0.08,VWS V13.00,2013-03-20 23:15:00,
2013-03-20 19:20:00,31.2,21.5,29.78,West,259,3.0,14.0,67,0.00,,---,0.08,VWS V13.00,2013-03-20 23:20:00,
2013-03-20 19:25:00,31.0,21.3,29.78,West,268,5.0,14.0,67,0.00,,---,0.08,VWS V13.00,2013-03-20 23:25:00,
2013-03-20 19:30:00,31.0,21.0,29.78,SW,232,6.0,14.0,66,0.00,,---,0.08,VWS V13.00,2013-03-20 23:30:00,
2013-03-20 19:35:00,31.1,20.7,29.78,WSW,248,3.0,14.0,65,0.00,,---,0.08,VWS V13.00,2013-03-20 23:35:00,
2013-03-20 19:40:00,30.8,21.1,29.78,West,261,2.0,5.0,67,0.00,,---,0.08,VWS V13.00,2013-03-20 23:40:00,
2013-03-20 19:45:00,30.6,21.3,29.78,WSW,250,2.0,10.0,68,0.00,,---,0.08,VWS V13.00,2013-03-20 23:45:00,
2013-03-20 19:50:00,30.4,21.1,29.79,West,263,5.0,10.0,68,0.00,,---,0.08,VWS V13.00,2013-03-20 23:50:00,
2013-03-20 19:55:00,30.4,21.1,29.78,WSW,258,4.0,10.0,68,0.00,,---,0.08,VWS V13.00,2013-03-20 23:55:00,
2013-03-20 20:00:00,30.2,20.9,29.78,WSW,252,5.0,10.0,68,0.00,,---,0.08,VWS V13.00,2013-03-21 00:00:00,
2013-03-20 20:05:00,30.1,20.8,29.79,West,265,4.0,10.0,68,0.00,,---,0.08,VWS V13.00,2013-03-21 00:05:00,
2013-03-20 20:10:00,30.1,21.5,29.78,West,271,2.0,5.0,70,0.00,,---,0.08,VWS V13.00,2013-03-21 00:10:00,
2013-03-20 20:15:00,30.0,21.1,29.79,WSW,252,2.0,9.0,69,0.00,,---,0.08,VWS V13.00,2013-03-21 00:15:00,
2013-03-20 20:20:00,29.9,21.0,29.79,West,269,0.0,9.0,69,0.00,,---,0.08,VWS V13.00,2013-03-21 00:20:00,
2013-03-20 20:25:00,29.7,20.8,29.79,WSW,252,4.0,9.0,69,0.00,,---,0.08,VWS V13.00,2013-03-21 00:25:00,
2013-03-20 20:30:00,29.6,20.7,29.79,WSW,256,1.0,9.0,69,0.00,,---,0.08,VWS V13.00,2013-03-21 00:30:00,
2013-03-20 20:35:00,29.8,20.9,29.79,West,262,2.0,9.0,69,0.00,,---,0.08,VWS V13.00,2013-03-21 00:35:00,
2013-03-20 20:40:00,29.7,20.5,29.79,West,261,1.0,2.0,68,0.00,,---,0.08,VWS V13.00,2013-03-21 00:40:00,
2013-03-20 20:45:00,29.6,20.4,29.80,West,260,0.0,5.0,68,0.00,,---,0.08,VWS V13.00,2013-03-21 00:45:00,
2013-03-20 20:50:00,29.4,20.2,29.80,WSW,257,2.0,5.0,68,0.00,,---,0.08,VWS V13.00,2013-03-21 00:50:00,
2013-03-20 20:55:00,29.3,20.4,29.80,SW,230,4.0,5.0,69,0.00,,---,0.08,VWS V13.00,2013-03-21 00:55:00,
2013-03-20 21:00:00,29.2,20.3,29.80,SW,234,5.0,5.0,69,0.00,,---,0.08,VWS V13.00,2013-03-21 01:00:00,
2013-03-20 21:05:00,29.2,19.6,29.80,WNW,284,2.0,6.0,67,0.00,,---,0.08,VWS V13.00,2013-03-21 01:05:00,
2013-03-20 21:10:00,29.2,19.6,29.79,West,281,1.0,5.0,67,0.00,,---,0.08,VWS V13.00,2013-03-21 01:10:00,
2013-03-20 21:15:00,29.2,19.6,29.80,West,273,2.0,5.0,67,0.00,,---,0.08,VWS V13.00,2013-03-21 01:15:00,
2013-03-20 21:20:00,29.1,19.5,29.80,SW,225,0.0,6.0,67,0.00,,---,0.08,VWS V13.00,2013-03-21 01:20:00,
2013-03-20 21:25:00,28.9,19.3,29.80,SW,225,2.0,6.0,67,0.00,,---,0.08,VWS V13.00,2013-03-21 01:25:00,
2013-03-20 21:30:00,28.7,19.5,29.80,SW,225,1.0,6.0,68,0.00,,---,0.08,VWS V13.00,2013-03-21 01:30:00,
2013-03-20 21:35:00,28.5,19.0,29.80,SW,225,2.0,6.0,67,0.00,,---,0.08,VWS V13.00,2013-03-21 01:35:00,
2013-03-20 21:40:00,28.4,19.2,29.80,SW,225,1.0,2.0,68,0.00,,---,0.08,VWS V13.00,2013-03-21 01:40:00,
2013-03-20 21:45:00,28.3,19.1,29.80,SW,225,1.0,2.0,68,0.00,,---,0.08,VWS V13.00,2013-03-21 01:45:00,
2013-03-20 21:50:00,28.2,19.0,29.80,SW,225,1.0,3.0,68,0.00,,---,0.08,VWS V13.00,2013-03-21 01:50:00,
2013-03-20 21:55:00,28.2,19.0,29.81,SW,225,1.0,4.0,68,0.00,,---,0.08,VWS V13.00,2013-03-21 01:55:00,
2013-03-20 22:00:00,28.1,18.9,29.81,SW,226,3.0,5.0,68,0.00,,---,0.08,VWS V13.00,2013-03-21 02:00:00,
2013-03-20 22:05:00,28.1,18.9,29.81,SW,228,2.0,5.0,68,0.00,,---,0.08,VWS V13.00,2013-03-21 02:05:00,
2013-03-20 22:10:00,28.1,18.9,29.81,SW,228,2.0,3.0,68,0.00,,---,0.08,VWS V13.00,2013-03-21 02:10:00,
2013-03-20 22:15:00,28.0,19.2,29.81,SW,228,1.0,4.0,69,0.00,,---,0.08,VWS V13.00,2013-03-21 02:15:00,
2013-03-20 22:20:00,27.7,18.9,29.81,SW,227,3.0,4.0,69,0.00,,---,0.08,VWS V13.00,2013-03-21 02:20:00,
2013-03-20 22:25:00,27.3,19.1,29.81,SW,229,2.0,6.0,71,0.00,,---,0.08,VWS V13.00,2013-03-21 02:25:00,
2013-03-20 22:30:00,27.1,19.0,29.81,SW,230,3.0,6.0,71,0.00,,---,0.08,VWS V13.00,2013-03-21 02:30:00,
2013-03-20 22:35:00,27.0,18.9,29.81,SW,232,4.0,6.0,71,0.00,,---,0.08,VWS V13.00,2013-03-21 02:35:00,
2013-03-20 22:40:00,26.9,18.8,29.81,SW,232,3.0,6.0,71,0.00,,---,0.08,VWS V13.00,2013-03-21 02:40:00,
2013-03-20 22:45:00,26.7,18.9,29.81,SW,232,2.0,6.0,72,0.00,,---,0.08,VWS V13.00,2013-03-21 02:45:00,
2013-03-20 22:50:00,26.3,18.8,29.80,SW,232,2.0,6.0,73,0.00,,---,0.08,VWS V13.00,2013-03-21 02:50:00,
2013-03-20 22:55:00,26.2,19.1,29.81,SW,232,2.0,6.0,74,0.00,,---,0.08,VWS V13.00,2013-03-21 02:55:00,
2013-03-20 23:00:00,26.2,18.7,29.80,SW,230,3.0,6.0,73,0.00,,---,0.08,VWS V13.00,2013-03-21 03:00:00,
2013-03-20 23:05:00,26.3,19.1,29.81,SW,233,2.0,6.0,74,0.00,,---,0.08,VWS V13.00,2013-03-21 03:05:00,
2013-03-20 23:10:00,26.2,18.7,29.81,SW,234,2.0,6.0,73,0.00,,---,0.08,VWS V13.00,2013-03-21 03:10:00,
2013-03-20 23:15:00,26.2,19.1,29.81,SW,234,1.0,6.0,74,0.00,,---,0.08,VWS V13.00,2013-03-21 03:15:00,
2013-03-20 23:20:00,26.2,19.1,29.81,SW,234,2.0,6.0,74,0.00,,---,0.08,VWS V13.00,2013-03-21 03:20:00,
2013-03-20 23:25:00,26.2,19.1,29.81,SW,234,1.0,6.0,74,0.00,,---,0.08,VWS V13.00,2013-03-21 03:25:00,
2013-03-20 23:30:00,26.3,18.8,29.81,SW,234,0.0,6.0,73,0.00,,---,0.08,VWS V13.00,2013-03-21 03:30:00,
2013-03-20 23:35:00,26.5,18.7,29.81,SW,234,0.0,6.0,72,0.00,,---,0.08,VWS V13.00,2013-03-21 03:35:00,
2013-03-20 23:40:00,26.5,18.7,29.81,SW,234,2.0,3.0,72,0.00,,---,0.08,VWS V13.00,2013-03-21 03:40:00,
2013-03-20 23:45:00,26.3,18.5,29.81,SW,234,1.0,3.0,72,0.00,,---,0.08,VWS V13.00,2013-03-21 03:45:00,
2013-03-20 23:50:00,26.1,18.6,29.81,SW,234,2.0,3.0,73,0.00,,---,0.08,VWS V13.00,2013-03-21 03:50:00,
2013-03-20 23:55:00,25.8,18.4,29.81,SW,234,3.0,3.0,73,0.00,,---,0.08,VWS V13.00,2013-03-21 03:55:00,